User: anonymous   Login
Location: Bambrugge
(50.9212°N, 3.9299°E)
Time: 11:52:46
(UTC+00:00)
Language:

MOZ.5/SAFIR/RUBIN 5/SL-8 - Orbit

View from above orbital plane
View from above orbital plane
View from above satellite
View from above satellite

Ground track
Ground track

The orbit data is extracted from the following two-line orbital elements,

1 28898U 05043G   24200.97716665  .00001746  00000-0  35415-3 0  9991
2 28898  98.2573 329.3125 0019035   7.9116 352.2381 14.62376296997755
Epoch (UTC): 18 July 2024 23:27:07
Eccentricity: 0.0019035
inclination: 98.2573°
perigee height: 672 km
apogee height: 699 km
right ascension of ascending node: 329.3125°
argument of perigee: 7.9116°
revolutions per day: 14.62376296
mean anomaly at epoch: 352.2381°
orbit number at epoch: 99775

The dashed part of the orbit path shows where the satellite is in the earth's shadow,  

DLR